Date String (YYYY-MM-DD hh:mm:ss) UTC,Instrument flags,Ambient pressure (hPa),Sample flow (lpm),Bypass flow (lpm),Sample temperature (°C),Ambient temperature (°C),ASC tube jacket temperature (°C),LED temperature (°C),Box temperature (°C),Sample RH (%),Span deviation,Mass concentration (μg/m³),Mass concentration (μg/m³),Mass concentration (μg/m³)
DateTimeUTC,F1_M11,P_M11,Q1_M11,Q2_M11,T1_M11,T2_M11,T3_M11,T4_M11,T5_M11,U1_M11,ZSPAN_M11,X0_M11,X2_M11,X1_M11
2021-11-28 17:00:00,,0830.6,5.01,0.00,24.8,24.0,00.0,33.7,26.7,14.3,0000.0,0010.43,0002.98,0001.66
2021-11-28 17:01:00,,0830.6,5.00,0.00,24.8,24.0,00.0,33.7,26.7,14.3,0000.0,0010.55,0002.96,0001.64
2021-11-28 17:02:00,,0830.5,4.99,0.00,24.8,24.0,00.0,33.7,26.7,14.2,0000.0,0009.83,0002.88,0001.62
2021-11-28 17:03:00,,0830.6,5.01,0.00,24.8,24.1,00.0,33.7,26.7,14.2,0000.0,0009.34,0002.89,0001.61
2021-11-28 17:04:00,,0830.5,5.00,0.00,24.8,24.1,00.0,33.7,26.7,14.3,0000.0,0009.07,0002.88,0001.60
2021-11-28 17:05:00,,0830.6,4.99,0.00,24.8,24.1,00.0,33.7,26.7,14.3,0000.0,0009.30,0002.83,0001.58
2021-11-28 17:06:00,,0830.5,5.01,0.00,24.9,24.1,00.0,33.8,26.7,14.3,0000.0,0009.66,0002.73,0001.56
2021-11-28 17:07:00,,0830.4,5.00,0.00,24.9,24.1,00.0,33.8,26.7,14.3,0000.0,0009.80,0002.67,0001.54
2021-11-28 17:08:00,,0830.4,5.00,0.00,24.9,24.1,00.0,33.8,26.8,14.3,0000.0,0010.04,0002.65,0001.51
2021-11-28 17:09:00,,0830.4,5.00,0.00,24.9,24.1,00.0,33.8,26.8,14.3,0000.0,0010.21,0002.62,0001.48
2021-11-28 17:10:00,,0830.4,4.99,0.00,24.9,24.2,00.0,33.8,26.8,14.2,0000.0,0010.26,0002.62,0001.45
2021-11-28 17:11:00,,0830.4,5.01,0.00,24.9,24.2,00.0,33.8,26.8,14.2,0000.0,0010.01,0002.50,0001.42
2021-11-28 17:12:00,,0830.5,4.99,0.00,25.0,24.2,00.0,33.8,26.9,14.1,0000.0,0009.04,0002.42,0001.40
2021-11-28 17:13:00,,0830.5,5.01,0.00,25.0,24.2,00.0,33.9,26.9,14.2,0000.0,0009.18,0002.41,0001.39
2021-11-28 17:14:00,,0830.5,5.00,0.00,25.0,24.2,00.0,33.9,26.8,14.4,0000.0,0009.11,0002.41,0001.39
2021-11-28 17:15:00,,0830.6,5.00,0.00,25.0,24.3,00.0,33.9,26.8,14.3,0000.0,0008.70,0002.37,0001.37
2021-11-28 17:16:00,,0830.5,4.99,0.00,25.0,24.3,00.0,33.9,26.9,14.3,0000.0,0007.80,0002.40,0001.37
2021-11-28 17:17:00,,0830.4,5.01,0.00,25.0,24.3,00.0,33.9,26.9,14.3,0000.0,0007.65,0002.38,0001.37
2021-11-28 17:18:00,,0830.4,4.99,0.00,25.0,24.3,00.0,33.9,26.9,14.3,0000.0,0007.57,0002.37,0001.36
2021-11-28 17:19:00,,0830.4,5.01,0.00,25.0,24.3,00.0,34.0,26.9,14.2,0000.0,0006.45,0002.30,0001.35
2021-11-28 17:20:00,,0830.3,4.99,0.00,25.1,24.4,00.0,34.0,27.0,14.1,0000.0,0005.94,0002.28,0001.35
2021-11-28 17:21:00,,0830.4,5.01,0.00,25.1,24.4,00.0,34.0,27.0,14.2,0000.0,0006.02,0002.27,0001.36
2021-11-28 17:22:00,,0830.4,4.99,0.00,25.1,24.4,00.0,34.0,27.0,14.1,0000.0,0007.13,0002.33,0001.38
2021-11-28 17:23:00,,0830.4,5.01,0.00,25.1,24.4,00.0,34.0,27.0,14.1,0000.0,0008.02,0002.37,0001.39
2021-11-28 17:24:00,,0830.4,4.99,0.00,25.1,24.4,00.0,34.0,27.1,14.1,0000.0,0007.99,0002.41,0001.39
2021-11-28 17:25:00,,0830.4,5.01,0.00,25.1,24.5,00.0,34.1,27.1,14.2,0000.0,0007.97,0002.39,0001.39
2021-11-28 17:26:00,,0830.3,5.00,0.00,25.2,24.5,00.0,34.1,27.1,14.1,0000.0,0007.94,0002.36,0001.38
2021-11-28 17:27:00,,0830.3,4.99,0.00,25.2,24.5,00.0,34.1,27.1,14.0,0000.0,0007.81,0002.27,0001.37
2021-11-28 17:28:00,,0830.3,5.01,0.00,25.2,24.5,00.0,34.1,27.1,14.0,0000.0,0007.52,0002.25,0001.38
2021-11-28 17:29:00,,0830.2,5.00,0.00,25.2,24.5,00.0,34.1,27.1,14.0,0000.0,0008.01,0002.26,0001.38
2021-11-28 17:30:00,,0830.1,5.00,0.00,25.2,24.5,00.0,34.1,27.2,13.9,0000.0,0008.43,0002.27,0001.39
2021-11-28 17:31:00,,0830.1,4.99,0.00,25.3,24.5,00.0,34.2,27.2,13.9,0000.0,0008.41,0002.27,0001.41
2021-11-28 17:32:00,,0830.1,5.00,0.00,25.3,24.6,00.0,34.2,27.2,13.9,0000.0,0008.51,0002.32,0001.43
2021-11-28 17:33:00,,0830.1,5.01,0.00,25.3,24.6,00.0,34.2,27.2,14.0,0000.0,0008.41,0002.29,0001.43
2021-11-28 17:34:00,,0830.1,4.98,0.00,25.3,24.6,00.0,34.2,27.2,13.9,0000.0,0008.27,0002.32,0001.45
2021-11-28 17:35:00,,0830.1,5.01,0.00,25.3,24.6,00.0,34.2,27.2,13.9,0000.0,0008.27,0002.29,0001.47
2021-11-28 17:36:00,,0830.1,4.99,0.00,25.3,24.6,00.0,34.2,27.2,13.8,0000.0,0008.34,0002.30,0001.47
2021-11-28 17:37:00,,0830.1,5.01,0.00,25.4,24.6,00.0,34.3,27.2,13.8,0000.0,0008.35,0002.34,0001.49
2021-11-28 17:38:00,,0830.1,5.00,0.00,25.4,24.6,00.0,34.3,27.3,13.9,0000.0,0008.47,0002.42,0001.51
2021-11-28 17:39:00,,0830.1,5.01,0.00,25.4,24.7,00.0,34.3,27.3,13.9,0000.0,0008.92,0002.49,0001.51
2021-11-28 17:40:00,,0830.1,4.99,0.00,25.4,24.7,00.0,34.3,27.3,13.8,0000.0,0008.50,0002.57,0001.52
2021-11-28 17:41:00,,0830.1,5.01,0.00,25.4,24.7,00.0,34.3,27.3,13.8,0000.0,0008.38,0002.61,0001.54
2021-11-28 17:42:00,,0830.1,4.99,0.00,25.4,24.7,00.0,34.3,27.4,13.8,0000.0,0008.52,0002.62,0001.54
2021-11-28 17:43:00,,0830.1,5.00,0.00,25.5,24.8,00.0,34.4,27.4,13.8,0000.0,0008.45,0002.53,0001.52
2021-11-28 17:44:00,,0830.1,5.00,0.00,25.5,24.8,00.0,34.4,27.4,13.8,0000.0,0008.32,0002.54,0001.51
2021-11-28 17:45:00,,0830.0,4.99,0.00,25.5,24.8,00.0,34.4,27.4,13.7,0000.0,0007.96,0002.56,0001.51
2021-11-28 17:46:00,,0830.0,5.01,0.00,25.5,24.8,00.0,34.4,27.4,13.7,0000.0,0008.41,0002.61,0001.51
2021-11-28 17:47:00,,0830.0,4.99,0.00,25.5,24.8,00.0,34.4,27.4,13.7,0000.0,0008.37,0002.64,0001.52
2021-11-28 17:48:00,,0830.0,5.01,0.00,25.6,24.9,00.0,34.4,27.5,13.7,0000.0,0008.91,0002.65,0001.53
2021-11-28 17:49:00,,0830.0,4.99,0.00,25.6,24.9,00.0,34.5,27.5,13.7,0000.0,0009.11,0002.73,0001.53
2021-11-28 17:50:00,,0830.0,5.01,0.00,25.6,24.9,00.0,34.5,27.5,13.7,0000.0,0008.67,0002.66,0001.51
2021-11-28 17:51:00,,0830.0,5.00,0.00,25.6,25.0,00.0,34.5,27.5,13.7,0000.0,0008.55,0002.59,0001.51
2021-11-28 17:52:00,,0830.0,5.01,0.00,25.6,25.0,00.0,34.5,27.5,13.7,0000.0,0008.78,0002.53,0001.49
2021-11-28 17:53:00,,0830.0,4.99,0.00,25.6,25.0,00.0,34.5,27.6,13.7,0000.0,0008.79,0002.56,0001.49
2021-11-28 17:54:00,,0830.0,5.01,0.00,25.7,25.0,00.0,34.6,27.6,13.7,0000.0,0008.92,0002.65,0001.51
2021-11-28 17:55:00,,0830.0,5.00,0.00,25.7,25.0,00.0,34.6,27.6,13.6,0000.0,0009.55,0002.66,0001.50
2021-11-28 17:56:00,,0829.9,4.99,0.00,25.7,25.0,00.0,34.6,27.6,13.6,0000.0,0009.16,0002.63,0001.48
2021-11-28 17:57:00,,0830.1,5.00,0.00,25.7,25.1,00.0,34.6,27.6,13.6,0000.0,0008.66,0002.60,0001.47
2021-11-28 17:58:00,,0830.1,5.02,0.00,25.7,25.1,00.0,34.6,27.6,13.6,0000.0,0008.79,0002.57,0001.45
2021-11-28 17:59:00,,0830.1,5.00,0.00,25.7,25.1,00.0,34.6,27.7,13.5,0000.0,0008.50,0002.61,0001.44
